Temperature
9 9 9 11 12 14 14 14 14 15 15 15 14 14 16 17 17 17 17 18 18 18 18 17 17 17 16 16 16 16 16 16 16 15 15 15 16 16 16 16 16 16 15 15
8 9 11 13 13 13 14 14 14 14 15 14 14 14 15 16 16 16 16 17 17 17 16 16 15 15 15 15 15 15 16 16 16 15 15 15 15 15 16 16 16 16 15 15
9 10 11 12 12 12 13 14 14 13 13 14 14 13 14 15 15 15 15 15 15 15 15 14 14 13 14 14 14 14 15 15 15 15 15 15 15 15 14 15 15 15 15 15
9 10 11 11 12 12 12 14 14 13 12 11 12 12 14 13 13 14 14 14 14 14 13 13 12 12 12 12 13 14 14 14 15 15 15 15 14 14 14 14 14 14 14 14
8 9 10 10 11 12 12 13 13 13 12 12 12 11 13 13 12 12 13 14 13 12 12 11 11 11 11 12 12 13 13 13 14 14 14 14 14 13 13 13 13 13 13 13
8 9 9 10 11 12 12 12 12 12 11 10 12 12 13 12 12 12 13 13 12 12 11 11 10 10 10 11 11 12 12 12 12 13 13 13 13 13 13 13 13 13 13 12
8 8 8 9 9 10 11 10 9 9 9 10 13 13 13 13 13 13 12 12 12 11 11 10 10 10 10 10 10 10 11 11 11 11 11 11 11 12 12 12 12 12 12 12
7 7 8 9 9 9 10 10 10 10 10 11 12 12 13 13 13 13 13 12 11 11 10 10 9 9 9 9 10 10 10 10 10 10 10 10 10 10 11 11 11 11 11 11
8 8 8 9 9 10 10 10 11 10 11 10 11 12 11 12 11 11 12 12 11 11 10 9 9 9 9 9 9 9 9 9 9 9 9 9 9 9 10 10 10 10 10 10
10 8 8 9 9 9 10 10 9 8 9 10 12 12 10 10 10 11 11 11 11 10 10 9 9 8 8 8 8 8 8 8 8 8 8 8 8 8 8 9 9 9 9 9
11 8 8 8 9 9 9 10 10 9 10 9 11 11 13 11 11 11 11 12 11 10 9 8 8 7 7 7 7 7 7 7 7 7 7 7 7 7 8 8 8 8 8 8
11 9 8 8 9 9 10 10 10 8 9 9 9 10 12 11 12 12 12 11 10 10 9 8 7 7 6 6 6 6 6 6 6 6 6 6 6 6 7 7 7 7 7 7
11 8 7 7 8 8 9 10 10 9 8 8 8 10 12 11 12 12 11 11 10 9 8 7 6 6 5 5 5 5 5 5 5 5 5 5 5 5 6 6 6 6 6 6
11 9 8 8 9 8 8 9 9 8 6 8 9 10 11 11 11 11 11 11 10 9 8 7 6 5 5 4 4 4 4 4 4 4 5 5 5 5 5 5 5 5 5 5
10 8 9 9 10 9 9 9 9 7 8 7 10 11 11 11 11 12 11 10 9 8 7 6 5 4 4 3 3 3 3 3 3 4 4 4 3 3 3 4 4 4 4 4
10 9 9 8 9 9 8 9 9 8 8 8 9 10 11 12 12 11 11 10 9 8 7 5 4 4 3 3 2 3 3 2 2 3 3 3 2 2 3 3 3 3 2 2
9 9 7 8 9 8 7 8 8 8 9 9 8 9 11 11 11 11 10 9 9 7 6 5 4 3 2 2 2 2 2 2 2 2 2 2 2 2 2 2 2 1 1 1
9 8 7 7 8 6 9 10 10 9 9 10 10 11 11 11 10 10 9 9 8 7 5 4 3 2 2 2 1 1 1 1 1 1 1 1 1 1 1 1 1 1 0 0
9 9 7 7 7 8 10 9 10 9 9 10 10 10 10 10 9 8 8 8 7 6 5 4 3 2 1 1 1 0 0 1 1 1 0 0 1 1 1 0 0 0 -0 -0
9 8 7 7 7 7 10 10 10 10 9 10 10 10 10 9 8 7 7 7 6 5 4 3 2 2 1 1 0 0 0 0 0 0 0 0 0 0 0 0 -0 -0 -0 -1
7 7 6 7 7 8 10 9 9 8 8 9 10 10 9 8 8 7 7 6 5 4 3 3 2 1 1 0 -0 -0 0 0 0 -0 -0 -0 -0 0 -0 -0 -0 -1 -1 -1
7 7 7 7 6 7 9 9 9 9 9 9 9 9 9 8 7 7 6 5 4 4 3 2 2 1 1 0 0 0 -0 0 -0 -0 -0 -0 -0 -0 -0 -0 -1 -1 -1 -2
8 8 8 8 8 9 10 10 9 9 9 8 8 8 8 7 7 6 5 4 4 3 3 2 2 1 1 0 0 0 0 0 -0 -0 -0 -0 -0 -0 -0 -1 -1 -1 -2 -2
9 9 9 9 9 10 10 9 9 9 8 8 8 8 7 7 6 5 5 4 3 3 3 2 2 1 1 1 0 0 0 -0 -0 -0 -0 -0 -0 -0 -1 -1 -1 -1 -2 -2
9 9 8 8 9 10 9 9 9 8 8 8 7 7 7 6 6 5 5 4 3 3 3 2 2 2 1 1 1 0 0 -0 -0 -0 -0 -0 -0 -0 -1 -1 -1 -1 -2 -2
9 8 8 8 9 9 9 8 8 8 7 7 7 6 6 6 5 5 5 4 3 3 3 2 2 2 1 1 1 1 0 0 -0 -0 -0 -0 -0 -0 -1 -1 -1 -2 -2 -2
Wind_Speed
7 7 11 14 16 9 11 14 13 11 9 11 11 11 10 7 7 8 8 7 6 3 2 3 4 4 4 3 3 4 3 2 3 3 4 5 6 6 5 5 9 10 11 12
7 9 11 11 13 10 7 11 10 7 7 7 8 10 10 7 7 5 5 6 3 1 3 5 4 4 4 4 5 4 4 4 2 1 1 3 4 5 6 6 7 11 10 10
6 6 8 10 11 10 9 8 7 8 6 3 4 8 11 6 4 3 4 3 2 2 3 5 5 6 6 6 6 6 6 5 5 4 3 3 2 2 3 5 6 8 11 11
2 3 6 8 10 10 7 2 3 9 7 5 8 5 9 10 8 7 6 4 4 4 5 6 6 6 6 5 6 6 6 5 5 5 3 3 3 4 5 4 5 7 9 10
3 4 7 9 8 6 3 3 4 5 5 3 7 5 4 10 9 9 8 7 7 6 6 6 6 5 5 5 5 5 5 5 5 5 4 4 4 4 4 4 5 5 5 6
3 3 1 2 3 3 6 6 5 1 2 4 9 8 5 8 12 11 9 9 8 7 6 6 5 5 5 4 4 5 5 5 5 5 5 4 4 5 5 6 5 5 4 3
3 3 2 1 5 4 5 6 4 4 4 6 6 6 4 7 12 12 11 9 8 7 5 5 5 5 5 5 5 6 6 6 7 7 6 6 5 5 5 5 5 5 4 3
4 4 2 2 2 5 6 4 2 4 5 3 2 5 2 9 10 11 10 8 6 6 6 5 5 4 4 6 6 7 7 7 7 7 7 7 7 5 4 5 4 5 4 4
4 5 4 3 1 2 5 4 1 2 2 2 5 5 5 7 9 9 8 8 7 6 6 5 5 5 6 6 6 6 7 6 7 7 7 7 7 6 6 6 5 4 5 5
4 6 5 3 2 1 1 1 2 1 1 3 6 8 8 12 11 10 9 8 7 6 5 5 5 5 5 5 5 6 7 7 7 7 6 6 7 7 6 6 6 6 7 7
4 5 5 4 4 5 3 2 3 3 3 2 2 1 1 15 13 11 9 8 7 6 5 5 4 4 4 4 5 6 6 7 7 7 7 7 7 7 7 7 8 7 7 8
2 4 4 3 2 2 3 4 5 3 3 3 2 2 3 10 10 8 8 7 6 6 5 4 4 3 4 5 5 5 6 6 6 6 7 7 7 8 8 8 9 9 9 9
2 4 4 2 2 3 4 5 5 1 1 2 2 1 2 8 8 7 6 6 6 6 5 4 4 4 4 4 4 5 6 6 6 6 7 7 8 8 9 9 9 9 10 10
2 1 1 0 1 6 5 7 7 5 4 4 4 3 4 7 7 6 5 5 6 6 5 4 3 3 4 4 5 5 6 6 6 7 7 7 8 8 8 8 9 10 10 11
1 1 1 1 1 2 5 7 9 9 7 5 3 2 6 6 6 5 5 5 5 6 5 5 4 3 3 4 5 5 5 6 6 6 7 7 7 7 8 9 9 10 11 11
1 1 0 2 4 4 6 8 10 10 11 9 7 6 4 2 3 3 4 5 5 6 6 6 5 4 4 4 4 5 5 5 6 6 6 6 7 7 8 8 9 10 10 10
3 2 1 2 3 2 8 12 14 10 8 9 11 8 4 4 4 3 3 4 4 6 6 6 5 5 5 4 4 5 5 5 6 6 6 6 6 7 8 8 9 9 9 9
3 3 2 2 1 6 4 2 5 10 11 10 7 5 3 2 1 1 2 3 5 7 6 6 6 5 5 5 5 5 5 6 6 6 6 6 6 7 7 8 8 8 7 7
2 3 2 2 4 7 4 4 4 5 6 10 10 7 3 2 0 1 3 5 6 6 6 6 6 6 5 5 5 5 5 6 6 5 5 6 6 6 6 7 7 6 6 7
3 2 2 3 3 4 1 5 3 2 3 3 7 6 4 4 2 3 6 7 7 7 6 6 6 6 6 5 5 5 6 6 5 5 5 6 6 6 6 6 5 5 5 5
4 4 5 5 4 5 2 6 5 2 2 4 5 4 3 3 2 5 7 6 7 7 7 7 6 5 5 5 6 6 6 5 5 5 5 5 5 5 5 5 4 4 4 4
8 6 6 5 6 6 6 6 3 2 4 4 4 3 3 3 4 6 7 7 8 7 7 6 6 5 5 5 6 6 6 5 4 5 5 5 4 4 4 4 3 3 3 4
7 6 4 5 5 2 5 3 4 4 2 2 2 3 2 2 3 5 6 7 8 7 7 6 6 6 5 5 6 7 6 5 5 5 5 4 4 4 4 4 2 2 2 2
5 5 3 4 4 5 6 4 3 3 2 2 2 1 2 3 3 4 6 7 7 7 7 7 7 7 6 6 6 6 7 6 6 6 5 4 4 4 3 3 2 2 3 3
4 5 5 6 5 3 4 4 4 4 3 3 2 1 2 3 3 4 5 7 7 7 8 8 8 8 8 7 7 7 7 7 6 6 5 4 4 4 4 3 3 3 3 3
5 6 6 5 3 3 3 5 5 4 3 2 2 1 1 2 3 4 5 6 7 8 8 8 8 8 8 8 7 7 7 7 7 6 5 4 3 3 3 3 2 4 3 3
Wind_Direction
179 180 191 191 199 207 196 201 201 193 170 188 211 227 235 195 196 229 248 255 253 227 129 72 41 24 5 344 321 307 293 246 212 202 197 197 204 209 218 230 240 239 230 220
164 198 197 195 203 232 254 209 199 150 151 177 216 230 234 218 203 217 256 272 280 359 58 60 48 39 21 12 4 344 337 333 325 285 232 210 207 212 215 216 226 235 243 240
171 178 198 202 199 208 236 219 193 144 135 202 234 241 225 203 198 209 243 266 353 31 68 73 61 53 44 33 12 353 350 346 341 340 340 327 299 250 222 226 225 222 226 234
157 177 187 198 195 198 209 240 168 137 147 202 198 241 205 179 184 197 200 179 136 91 77 69 59 51 50 39 13 354 351 350 344 339 320 288 266 256 246 238 232 226 221 222
148 169 183 195 192 191 139 84 103 140 203 228 192 237 206 152 178 186 176 147 123 107 99 93 80 70 64 47 16 353 349 354 352 345 332 313 295 284 290 291 276 262 243 229
85 78 120 184 144 122 121 100 86 99 230 244 208 210 212 181 182 168 152 136 132 126 119 108 97 84 71 49 20 355 357 3 4 357 345 337 319 314 315 310 303 295 285 265
105 86 57 109 129 134 151 138 144 175 203 236 196 198 250 163 155 150 145 142 137 134 120 98 80 62 57 45 22 8 13 11 9 4 356 347 337 325 313 310 311 312 307 300
143 137 141 141 158 170 189 202 193 191 196 178 147 212 110 100 112 120 124 127 132 128 109 98 83 62 51 43 28 17 13 11 10 4 355 351 350 344 334 331 325 320 315 315
144 113 119 124 99 146 172 213 350 331 294 164 202 169 100 114 120 131 145 152 153 134 118 104 85 65 48 38 28 16 11 14 14 6 358 356 356 353 346 342 340 334 341 344
107 113 127 127 128 17 328 150 143 153 225 248 197 182 183 172 170 173 171 166 151 139 130 108 87 71 53 41 29 23 19 20 16 10 7 10 4 359 358 0 3 5 8 9
99 115 133 161 192 180 168 177 214 232 283 280 240 156 54 169 170 173 164 143 136 139 120 99 83 76 65 51 41 32 25 25 19 13 14 15 10 8 11 21 22 22 24 23
73 118 139 154 100 343 250 207 187 195 239 226 273 311 352 145 149 144 130 128 132 124 110 102 93 80 67 54 43 41 35 31 22 18 23 23 22 24 29 30 29 32 34 34
118 120 129 153 185 213 245 234 217 174 25 244 244 166 34 119 126 132 141 148 145 136 129 119 106 90 72 58 48 48 44 37 30 30 34 34 33 35 36 35 36 40 44 44
0 151 198 188 103 160 198 209 200 172 189 222 231 174 178 153 155 163 163 151 143 139 133 122 108 99 89 74 63 56 49 44 46 46 44 42 40 41 43 43 45 46 49 51
273 215 220 353 19 152 204 206 200 203 209 212 254 226 187 181 180 176 159 148 150 149 145 136 128 108 93 83 75 67 58 48 55 59 54 51 50 50 52 52 52 54 56 58
249 224 211 244 225 234 244 231 217 216 224 235 260 275 257 168 140 156 166 173 180 165 149 141 138 126 105 89 82 79 72 62 65 66 62 58 60 59 59 61 62 63 62 62
198 177 187 239 175 265 255 228 217 212 207 210 228 233 210 185 185 186 181 181 174 148 141 144 142 128 111 98 88 87 85 78 75 73 68 64 65 66 65 69 67 64 63 66
205 187 199 265 224 247 236 90 192 212 221 216 225 226 199 186 114 113 132 155 144 135 139 138 130 122 115 106 99 96 94 91 86 80 76 75 76 74 72 73 72 68 67 68
260 199 215 238 258 269 223 169 170 192 232 213 218 227 217 127 327 196 110 104 118 124 125 124 125 125 118 111 110 107 99 94 90 84 80 81 84 84 80 77 76 75 77 73
246 238 234 227 252 265 93 123 126 179 247 176 182 186 166 150 216 187 130 112 113 116 117 120 121 120 119 119 118 114 105 96 90 85 86 87 90 92 89 86 84 83 86 85
191 208 221 234 247 269 138 135 140 197 155 83 100 118 136 172 157 139 135 128 127 126 125 127 128 124 124 124 119 114 106 104 102 97 95 95 94 96 98 94 90 94 94 90
188 197 201 201 226 243 145 147 182 133 95 80 80 83 93 101 109 137 146 145 143 141 140 139 134 125 118 121 123 122 124 124 118 112 108 103 98 98 97 93 88 96 103 101
196 206 201 202 211 156 155 153 119 110 114 100 90 82 107 146 174 170 165 161 159 158 154 145 142 137 132 134 139 142 147 144 137 130 126 123 117 109 110 106 95 88 86 91
206 209 237 259 237 185 178 178 166 149 146 108 105 123 162 190 188 180 175 170 167 164 159 156 156 158 160 158 155 156 155 157 150 144 143 141 132 122 108 96 74 68 61 60
212 178 216 245 250 240 206 181 158 132 113 114 112 143 185 189 199 193 185 177 171 167 163 167 171 173 169 165 162 158 160 160 155 152 152 146 139 133 114 93 73 82 78 89
221 205 205 226 216 187 159 129 118 127 135 141 157 189 198 191 206 200 191 180 172 169 167 172 178 175 168 165 165 165 167 168 164 160 161 159 151 142 139 134 106 89 120 95
Height
1469 1473 1473 1472 1473 1473 1475 1480 1482 1483 1483 1489 1493 1494 1492 1491 1493 1496 1497 1498 1499 1501 1502 1503 1505 1507 1508 1510 1512 1514 1516 1517 1518 1519 1520 1520 1521 1522 1523 1525 1526 1527 1527 1528
1471 1471 1470 1470 1472 1473 1473 1476 1478 1481 1483 1488 1491 1491 1488 1488 1490 1492 1494 1495 1497 1498 1499 1501 1502 1504 1505 1507 1508 1509 1511 1512 1513 1514 1515 1516 1517 1517 1518 1519 1520 1521 1522 1523
1467 1468 1469 1470 1473 1476 1475 1475 1476 1482 1486 1487 1491 1492 1487 1485 1487 1490 1492 1493 1495 1496 1498 1499 1500 1501 1502 1503 1504 1505 1506 1507 1508 1509 1510 1511 1512 1512 1513 1513 1514 1515 1516 1517
1469 1469 1470 1471 1473 1474 1477 1473 1474 1481 1490 1494 1493 1498 1482 1483 1487 1488 1490 1492 1494 1496 1497 1498 1499 1500 1500 1500 1501 1501 1502 1503 1504 1504 1505 1506 1506 1507 1508 1509 1509 1510 1510 1510
1470 1470 1472 1473 1473 1474 1477 1476 1478 1483 1489 1490 1490 1496 1483 1481 1486 1488 1489 1491 1493 1496 1497 1498 1499 1499 1498 1498 1498 1499 1499 1499 1500 1500 1500 1501 1501 1502 1503 1504 1504 1504 1505 1505
1472 1473 1474 1474 1475 1476 1478 1481 1485 1487 1491 1498 1487 1491 1483 1480 1479 1484 1487 1490 1493 1495 1497 1498 1498 1498 1497 1497 1496 1496 1496 1496 1496 1497 1497 1497 1497 1497 1498 1498 1498 1499 1499 1499
1475 1477 1478 1477 1480 1481 1481 1488 1497 1500 1502 1496 1476 1481 1477 1470 1472 1479 1485 1489 1492 1495 1496 1497 1497 1497 1496 1495 1495 1494 1494 1494 1494 1493 1493 1493 1493 1493 1493 1493 1493 1493 1493 1493
1475 1478 1478 1478 1479 1481 1482 1484 1491 1494 1494 1486 1480 1482 1476 1470 1473 1479 1484 1488 1492 1494 1495 1495 1495 1495 1495 1494 1493 1493 1492 1492 1491 1490 1490 1490 1489 1489 1488 1488 1488 1488 1488 1487
1470 1477 1479 1479 1480 1480 1483 1485 1483 1487 1482 1486 1484 1477 1481 1475 1478 1481 1485 1488 1491 1492 1493 1494 1494 1493 1493 1492 1491 1491 1490 1489 1488 1487 1487 1486 1485 1485 1484 1484 1483 1483 1482 1482
1466 1477 1479 1481 1481 1482 1482 1480 1487 1491 1489 1485 1475 1474 1479 1479 1480 1481 1483 1486 1489 1491 1492 1492 1492 1492 1491 1490 1490 1489 1488 1486 1485 1484 1483 1482 1482 1481 1480 1479 1478 1478 1477 1476
1464 1475 1481 1482 1482 1482 1484 1484 1484 1485 1484 1489 1482 1478 1464 1469 1474 1478 1481 1484 1487 1489 1490 1490 1490 1490 1489 1489 1488 1487 1485 1484 1483 1482 1481 1480 1479 1478 1477 1476 1475 1474 1473 1472
1465 1472 1480 1480 1480 1480 1479 1479 1482 1489 1487 1484 1489 1483 1465 1467 1471 1476 1480 1483 1485 1487 1488 1488 1488 1488 1488 1487 1486 1485 1484 1482 1481 1480 1479 1477 1476 1475 1474 1473 1472 1471 1470 1469
1466 1474 1483 1485 1486 1483 1481 1478 1477 1482 1487 1487 1487 1482 1468 1469 1473 1476 1479 1482 1483 1485 1486 1486 1486 1486 1486 1485 1484 1483 1482 1481 1479 1478 1477 1476 1474 1473 1472 1471 1469 1468 1467 1466
1467 1472 1477 1477 1474 1477 1480 1477 1477 1484 1491 1486 1481 1476 1472 1472 1474 1476 1478 1480 1481 1482 1483 1484 1484 1484 1484 1483 1482 1481 1480 1479 1478 1477 1476 1475 1473 1472 1470 1469 1468 1467 1466 1465
1468 1472 1471 1472 1470 1472 1474 1474 1476 1481 1481 1483 1474 1471 1470 1470 1472 1474 1475 1477 1479 1480 1481 1481 1482 1482 1481 1481 1480 1479 1479 1478 1477 1476 1475 1473 1472 1471 1470 1469 1467 1466 1465 1464
1468 1470 1472 1473 1471 1471 1473 1471 1472 1474 1475 1475 1473 1472 1467 1468 1469 1471 1473 1475 1476 1477 1478 1478 1479 1479 1479 1479 1478 1478 1477 1476 1476 1475 1474 1473 1472 1471 1470 1469 1468 1467 1466 1465
1468 1470 1475 1474 1469 1472 1475 1464 1465 1466 1465 1468 1472 1469 1466 1467 1468 1470 1471 1472 1473 1474 1475 1476 1476 1476 1476 1476 1476 1476 1476 1475 1475 1474 1474 1473 1472 1471 1470 1470 1469 1468 1468 1467
1467 1469 1474 1473 1473 1480 1461 1454 1454 1458 1460 1461 1461 1461 1462 1464 1466 1467 1468 1469 1470 1471 1472 1473 1474 1474 1474 1474 1474 1475 1475 1474 1474 1474 1474 1473 1473 1472 1471 1471 1470 1470 1470 1469
1465 1468 1471 1473 1471 1464 1455 1454 1454 1456 1457 1455 1457 1459 1461 1463 1464 1465 1466 1466 1467 1468 1469 1470 1471 1472 1472 1472 1473 1473 1474 1474 1474 1474 1474 1473 1473 1473 1473 1472 1472 1472 1471 1471
1465 1467 1471 1470 1472 1467 1455 1452 1452 1456 1456 1451 1452 1456 1459 1461 1465 1465 1464 1465 1465 1466 1467 1468 1469 1470 1470 1471 1472 1472 1473 1473 1474 1474 1474 1474 1474 1474 1474 1474 1474 1473 1473 1472
1467 1468 1470 1470 1469 1460 1452 1452 1454 1460 1457 1453 1453 1455 1457 1459 1461 1462 1462 1463 1464 1465 1465 1466 1467 1468 1469 1470 1470 1471 1472 1473 1474 1474 1475 1475 1475 1475 1475 1475 1475 1474 1474 1473
1462 1464 1464 1464 1468 1463 1451 1452 1454 1455 1453 1453 1454 1455 1457 1458 1459 1460 1460 1461 1462 1462 1463 1464 1465 1466 1467 1468 1470 1471 1472 1473 1474 1475 1475 1475 1476 1476 1476 1476 1476 1475 1475 1474
1454 1454 1454 1456 1457 1450 1449 1450 1451 1452 1453 1454 1454 1455 1455 1456 1457 1457 1458 1459 1459 1460 1461 1463 1464 1465 1466 1467 1469 1470 1471 1473 1474 1475 1475 1476 1476 1476 1476 1476 1476 1475 1475 1474
1447 1447 1449 1449 1446 1446 1447 1448 1449 1450 1451 1452 1452 1453 1453 1454 1454 1455 1455 1456 1457 1458 1459 1461 1462 1463 1465 1466 1468 1469 1471 1472 1473 1474 1475 1476 1476 1476 1476 1476 1476 1475 1475 1474
1443 1445 1446 1447 1445 1445 1445 1446 1447 1448 1449 1450 1450 1451 1451 1451 1452 1452 1453 1453 1454 1456 1457 1458 1460 1461 1463 1465 1466 1468 1470 1471 1472 1474 1474 1475 1475 1476 1476 1476 1475 1475 1474 1474
1441 1442 1444 1444 1441 1441 1443 1443 1445 1446 1447 1448 1448 1448 1449 1449 1449 1449 1450 1451 1452 1453 1454 1456 1458 1459 1461 1463 1465 1467 1468 1470 1471 1472 1473 1474 1474 1475 1475 1475 1474 1474 1474 1473